﻿測定場所 (Monitoring sites),日付 (Measurement date),時間 (Measurement time),線量率 最大値 (max) μGy/h,線量率 最小値 (min) μGy/h,線量率 平均値 (average) μGy/h,
大田 (Ota),2020-02-16,23:01～24:00,0.0443,0.0349,0.0394,
大田 (Ota),2020-02-16,22:01～23:00,0.0481,0.0403,0.0431,
大田 (Ota),2020-02-16,21:01～22:00,0.0473,0.0402,0.0435,
大田 (Ota),2020-02-16,20:01～21:00,0.0516,0.0438,0.0467,
大田 (Ota),2020-02-16,19:01～20:00,0.0480,0.0345,0.0405,
大田 (Ota),2020-02-16,18:01～19:00,0.0387,0.0326,0.0360,
大田 (Ota),2020-02-16,17:01～18:00,0.0369,0.0328,0.0349,
大田 (Ota),2020-02-16,16:01～17:00,0.0369,0.0322,0.0353,
大田 (Ota),2020-02-16,15:01～16:00,0.0401,0.0333,0.0357,
大田 (Ota),2020-02-16,14:01～15:00,0.0364,0.0327,0.0348,
大田 (Ota),2020-02-16,13:01～14:00,0.0379,0.0333,0.0353,
大田 (Ota),2020-02-16,12:01～13:00,0.0433,0.0346,0.0384,
大田 (Ota),2020-02-16,11:01～12:00,0.0472,0.0399,0.0437,
大田 (Ota),2020-02-16,10:01～11:00,0.0475,0.0392,0.0431,
大田 (Ota),2020-02-16,09:01～10:00,0.0425,0.0348,0.0383,
大田 (Ota),2020-02-16,08:01～09:00,0.0408,0.0349,0.0374,
大田 (Ota),2020-02-16,07:01～08:00,0.0398,0.0336,0.0358,
大田 (Ota),2020-02-16,06:01～07:00,0.0367,0.0325,0.0348,
大田 (Ota),2020-02-16,05:01～06:00,0.0368,0.0328,0.0347,
大田 (Ota),2020-02-16,04:01～05:00,0.0365,0.0325,0.0347,
大田 (Ota),2020-02-16,03:01～04:00,0.0372,0.0330,0.0347,
大田 (Ota),2020-02-16,02:01～03:00,0.0372,0.0312,0.0347,
大田 (Ota),2020-02-16,01:01～02:00,0.0364,0.0321,0.0344,
大田 (Ota),2020-02-16,00:01～01:00,0.0358,0.0319,0.0336,
大田 (Ota),2020-02-15,23:01～24:00,0.0366,0.0320,0.0339,
大田 (Ota),2020-02-15,22:01～23:00,0.0356,0.0312,0.0337,
大田 (Ota),2020-02-15,21:01～22:00,0.0356,0.0323,0.0339,
大田 (Ota),2020-02-15,20:01～21:00,0.0359,0.0326,0.0341,
大田 (Ota),2020-02-15,19:01～20:00,0.0363,0.0317,0.0338,
大田 (Ota),2020-02-15,18:01～19:00,0.0357,0.0324,0.0340,
大田 (Ota),2020-02-15,17:01～18:00,0.0366,0.0311,0.0340,
大田 (Ota),2020-02-15,16:01～17:00,0.0371,0.0320,0.0343,
大田 (Ota),2020-02-15,15:01～16:00,0.0365,0.0316,0.0340,
大田 (Ota),2020-02-15,14:01～15:00,0.0360,0.0322,0.0341,
大田 (Ota),2020-02-15,13:01～14:00,0.0363,0.0323,0.0342,
大田 (Ota),2020-02-15,12:01～13:00,0.0358,0.0320,0.0342,
大田 (Ota),2020-02-15,11:01～12:00,0.0359,0.0321,0.0343,
大田 (Ota),2020-02-15,10:01～11:00,0.0364,0.0324,0.0345,
大田 (Ota),2020-02-15,09:01～10:00,0.0373,0.0327,0.0344,
大田 (Ota),2020-02-15,08:01～09:00,0.0371,0.0322,0.0341,
大田 (Ota),2020-02-15,07:01～08:00,0.0363,0.0324,0.0342,
大田 (Ota),2020-02-15,06:01～07:00,0.0360,0.0328,0.0343,
大田 (Ota),2020-02-15,05:01～06:00,0.0357,0.0319,0.0340,
大田 (Ota),2020-02-15,04:01～05:00,0.0363,0.0324,0.0343,
大田 (Ota),2020-02-15,03:01～04:00,0.0367,0.0316,0.0339,
大田 (Ota),2020-02-15,02:01～03:00,0.0366,0.0318,0.0341,
大田 (Ota),2020-02-15,01:01～02:00,0.0363,0.0315,0.0342,
大田 (Ota),2020-02-15,00:01～01:00,0.0360,0.0312,0.0338,
大田 (Ota),2020-02-14,23:01～24:00,0.0365,0.0320,0.0340,
大田 (Ota),2020-02-14,22:01～23:00,0.0351,0.0318,0.0335,
大田 (Ota),2020-02-14,21:01～22:00,0.0359,0.0311,0.0337,
大田 (Ota),2020-02-14,20:01～21:00,0.0361,0.0314,0.0340,
大田 (Ota),2020-02-14,19:01～20:00,0.0392,0.0328,0.0354,
大田 (Ota),2020-02-14,18:01～19:00,0.0430,0.0354,0.0389,
大田 (Ota),2020-02-14,17:01～18:00,0.0444,0.0346,0.0403,
大田 (Ota),2020-02-14,16:01～17:00,0.0384,0.0329,0.0347,
大田 (Ota),2020-02-14,15:01～16:00,0.0359,0.0316,0.0341,
大田 (Ota),2020-02-14,14:01～15:00,0.0366,0.0333,0.0348,
大田 (Ota),2020-02-14,13:01～14:00,0.0368,0.0331,0.0347,
大田 (Ota),2020-02-14,12:01～13:00,0.0369,0.0335,0.0347,
大田 (Ota),2020-02-14,11:01～12:00,0.0366,0.0329,0.0349,
大田 (Ota),2020-02-14,10:01～11:00,0.0368,0.0325,0.0346,
大田 (Ota),2020-02-14,09:01～10:00,0.0361,0.0331,0.0346,
大田 (Ota),2020-02-14,08:01～09:00,0.0366,0.0323,0.0347,
大田 (Ota),2020-02-14,07:01～08:00,0.0359,0.0319,0.0339,
大田 (Ota),2020-02-14,06:01～07:00,0.0358,0.0320,0.0339,
大田 (Ota),2020-02-14,05:01～06:00,0.0369,0.0317,0.0341,
大田 (Ota),2020-02-14,04:01～05:00,0.0363,0.0321,0.0340,
大田 (Ota),2020-02-14,03:01～04:00,0.0363,0.0316,0.0339,
大田 (Ota),2020-02-14,02:01～03:00,0.0358,0.0317,0.0337,
大田 (Ota),2020-02-14,01:01～02:00,0.0366,0.0318,0.0338,
大田 (Ota),2020-02-14,00:01～01:00,0.0360,0.0319,0.0338,
大田 (Ota),2020-02-13,23:01～24:00,0.0359,0.0323,0.0338,
大田 (Ota),2020-02-13,22:01～23:00,0.0358,0.0307,0.0336,
大田 (Ota),2020-02-13,21:01～22:00,0.0367,0.0320,0.0341,
大田 (Ota),2020-02-13,20:01～21:00,0.0355,0.0321,0.0339,
大田 (Ota),2020-02-13,19:01～20:00,0.0367,0.0318,0.0338,
大田 (Ota),2020-02-13,18:01～19:00,0.0361,0.0318,0.0341,
大田 (Ota),2020-02-13,17:01～18:00,0.0361,0.0321,0.0341,
大田 (Ota),2020-02-13,16:01～17:00,0.0357,0.0320,0.0339,
大田 (Ota),2020-02-13,15:01～16:00,0.0355,0.0321,0.0338,
大田 (Ota),2020-02-13,14:01～15:00,0.0364,0.0324,0.0342,
大田 (Ota),2020-02-13,13:01～14:00,0.0363,0.0326,0.0346,
大田 (Ota),2020-02-13,12:01～13:00,0.0373,0.0335,0.0352,
大田 (Ota),2020-02-13,11:01～12:00,0.0410,0.0337,0.0367,
大田 (Ota),2020-02-13,10:01～11:00,0.0464,0.0374,0.0417,
大田 (Ota),2020-02-13,09:01～10:00,0.0455,0.0369,0.0419,
大田 (Ota),2020-02-13,08:01～09:00,0.0425,0.0321,0.0365,
大田 (Ota),2020-02-13,07:01～08:00,0.0370,0.0323,0.0339,
大田 (Ota),2020-02-13,06:01～07:00,0.0365,0.0320,0.0340,
大田 (Ota),2020-02-13,05:01～06:00,0.0364,0.0319,0.0341,
大田 (Ota),2020-02-13,04:01～05:00,0.0370,0.0319,0.0338,
大田 (Ota),2020-02-13,03:01～04:00,0.0366,0.0327,0.0346,
大田 (Ota),2020-02-13,02:01～03:00,0.0360,0.0321,0.0343,
大田 (Ota),2020-02-13,01:01～02:00,0.0364,0.0318,0.0345,
大田 (Ota),2020-02-13,00:01～01:00,0.0388,0.0324,0.0357,
大田 (Ota),2020-02-12,23:01～24:00,0.0430,0.0356,0.0386,
大田 (Ota),2020-02-12,22:01～23:00,0.0427,0.0329,0.0366,
大田 (Ota),2020-02-12,21:01～22:00,0.0367,0.0317,0.0344,
大田 (Ota),2020-02-12,20:01～21:00,0.0368,0.0320,0.0342,
大田 (Ota),2020-02-12,19:01～20:00,0.0363,0.0315,0.0338,
大田 (Ota),2020-02-12,18:01～19:00,0.0364,0.0316,0.0339,
大田 (Ota),2020-02-12,17:01～18:00,0.0362,0.0322,0.0342,
大田 (Ota),2020-02-12,16:01～17:00,0.0362,0.0320,0.0341,
大田 (Ota),2020-02-12,15:01～16:00,0.0356,0.0317,0.0340,
大田 (Ota),2020-02-12,14:01～15:00,0.0360,0.0322,0.0342,
大田 (Ota),2020-02-12,13:01～14:00,0.0371,0.0308,0.0344,
大田 (Ota),2020-02-12,12:01～13:00,0.0374,0.0318,0.0344,
大田 (Ota),2020-02-12,11:01～12:00,0.0360,0.0326,0.0347,
大田 (Ota),2020-02-12,10:01～11:00,0.0369,0.0317,0.0350,
大田 (Ota),2020-02-12,09:01～10:00,0.0370,0.0321,0.0352,
大田 (Ota),2020-02-12,08:01～09:00,0.0370,0.0329,0.0347,
大田 (Ota),2020-02-12,07:01～08:00,0.0374,0.0326,0.0344,
大田 (Ota),2020-02-12,06:01～07:00,0.0364,0.0325,0.0344,
大田 (Ota),2020-02-12,05:01～06:00,0.0364,0.0324,0.0343,
大田 (Ota),2020-02-12,04:01～05:00,0.0368,0.0315,0.0344,
大田 (Ota),2020-02-12,03:01～04:00,0.0363,0.0320,0.0341,
大田 (Ota),2020-02-12,02:01～03:00,0.0358,0.0316,0.0343,
大田 (Ota),2020-02-12,01:01～02:00,0.0367,0.0323,0.0343,
大田 (Ota),2020-02-12,00:01～01:00,0.0364,0.0320,0.0342,
大田 (Ota),2020-02-11,23:01～24:00,0.0365,0.0325,0.0343,
大田 (Ota),2020-02-11,22:01～23:00,0.0361,0.0315,0.0339,
大田 (Ota),2020-02-11,21:01～22:00,0.0363,0.0323,0.0342,
大田 (Ota),2020-02-11,20:01～21:00,0.0370,0.0322,0.0340,
大田 (Ota),2020-02-11,19:01～20:00,0.0363,0.0313,0.0339,
大田 (Ota),2020-02-11,18:01～19:00,0.0361,0.0317,0.0342,
大田 (Ota),2020-02-11,17:01～18:00,0.0368,0.0315,0.0339,
大田 (Ota),2020-02-11,16:01～17:00,0.0365,0.0321,0.0342,
大田 (Ota),2020-02-11,15:01～16:00,0.0367,0.0321,0.0341,
大田 (Ota),2020-02-11,14:01～15:00,0.0356,0.0317,0.0338,
大田 (Ota),2020-02-11,13:01～14:00,0.0368,0.0321,0.0343,
大田 (Ota),2020-02-11,12:01～13:00,0.0363,0.0330,0.0346,
大田 (Ota),2020-02-11,11:01～12:00,0.0371,0.0329,0.0345,
大田 (Ota),2020-02-11,10:01～11:00,0.0369,0.0323,0.0345,
大田 (Ota),2020-02-11,09:01～10:00,0.0377,0.0321,0.0342,
大田 (Ota),2020-02-11,08:01～09:00,0.0360,0.0322,0.0343,
大田 (Ota),2020-02-11,07:01～08:00,0.0357,0.0319,0.0338,
大田 (Ota),2020-02-11,06:01～07:00,0.0365,0.0319,0.0341,
大田 (Ota),2020-02-11,05:01～06:00,0.0355,0.0315,0.0337,
大田 (Ota),2020-02-11,04:01～05:00,0.0361,0.0321,0.0341,
大田 (Ota),2020-02-11,03:01～04:00,0.0365,0.0311,0.0340,
大田 (Ota),2020-02-11,02:01～03:00,0.0354,0.0321,0.0337,
大田 (Ota),2020-02-11,01:01～02:00,0.0357,0.0318,0.0338,
大田 (Ota),2020-02-11,00:01～01:00,0.0355,0.0317,0.0337,
大田 (Ota),2020-02-10,23:01～24:00,0.0354,0.0319,0.0338,
大田 (Ota),2020-02-10,22:01～23:00,0.0365,0.0322,0.0340,
大田 (Ota),2020-02-10,21:01～22:00,0.0362,0.0317,0.0340,
大田 (Ota),2020-02-10,20:01～21:00,0.0360,0.0321,0.0339,
大田 (Ota),2020-02-10,19:01～20:00,0.0364,0.0317,0.0340,
大田 (Ota),2020-02-10,18:01～19:00,0.0358,0.0311,0.0337,
大田 (Ota),2020-02-10,17:01～18:00,0.0369,0.0318,0.0339,
大田 (Ota),2020-02-10,16:01～17:00,0.0352,0.0313,0.0335,
大田 (Ota),2020-02-10,15:01～16:00,0.0358,0.0312,0.0340,
大田 (Ota),2020-02-10,14:01～15:00,0.0357,0.0313,0.0338,
大田 (Ota),2020-02-10,13:01～14:00,0.0366,0.0311,0.0338,
大田 (Ota),2020-02-10,12:01～13:00,0.0363,0.0318,0.0338,
大田 (Ota),2020-02-10,11:01～12:00,0.0370,0.0311,0.0340,
大田 (Ota),2020-02-10,10:01～11:00,0.0365,0.0310,0.0339,
大田 (Ota),2020-02-10,09:01～10:00,0.0356,0.0313,0.0335,
大田 (Ota),2020-02-10,08:01～09:00,0.0357,0.0311,0.0338,
大田 (Ota),2020-02-10,07:01～08:00,0.0352,0.0312,0.0334,
大田 (Ota),2020-02-10,06:01～07:00,0.0358,0.0307,0.0334,
大田 (Ota),2020-02-10,05:01～06:00,0.0355,0.0320,0.0336,
大田 (Ota),2020-02-10,04:01～05:00,0.0356,0.0311,0.0334,
大田 (Ota),2020-02-10,03:01～04:00,0.0361,0.0312,0.0334,
大田 (Ota),2020-02-10,02:01～03:00,0.0357,0.0315,0.0334,
大田 (Ota),2020-02-10,01:01～02:00,0.0356,0.0311,0.0337,
大田 (Ota),2020-02-10,00:01～01:00,0.0353,0.0313,0.0335,
